1998-067LX

Last updated on Thu May 25 2017 00:15:03 GMT+0000 (Coordinated Universal Time)

1 42716U 98067LX 17143.99723397 .00006326 00000-0 10000-3 0 9996 2 42716 51.6427 158.8430 0003394 261.7607 188.0243 15.54880544 879
UTC large
Height (km)
Speed (km/s)
/
Latitude / Longitude
Inclination (degrees)
Orbital Period (minutes)
Azimuth
Elevation
Range (km)
Doppler Factor

Next 0 passes for location: London (51.5072 / 0.1276)

Sorry there are no passes over London.